Regional Weather Roundup
Issued by NWS Northern Indiana

Home | Current Version | Previous Version | Graphics & Text | Print | Product List | Glossary On
Versions: 1 2 3 4 5 6 7 8 9 10 11 12 13 14 15 16 17 18 19 20 21 22 23 24 25 26 27 28 29 30 31 32 33 34 35 36 37 38 39 40 41 42 43 44 45 46 47 48 49 50
000
ASUS43 KIWX 040210
RWRIWX

KIWX WEATHER ROUNDUP
NATIONAL WEATHER SERVICE NORTHERN INDIANA
1000 PM EDT FRI JUL 03 2015

NOTE: "FAIR" INDICATES FEW OR NO CLOUDS BELOW 12,000 FEET WITH NO
SIGNIFICANT WEATHER AND/OR OBSTRUCTIONS TO VISIBILITY.

* THESE STATIONS ARE NOT UNDER NWS QUALITY CONTROL. THEY ALSO MAY NOT
  REPORT WEATHER SUCH AS PRECIPITATION OR FOG.

INZ001>027-040300-
NORTHERN INDIANA

CITY           SKY/WX    TMP DP  RH WIND       PRES   REMARKS
GARY*          MOCLDY    64  57  77 CALM      29.93S
VALPARAISO     CLEAR     63  54  72 CALM      29.93S
MICHIGAN CITY* CLEAR     59  55  88 CALM      29.94S
LAPORTE*       CLEAR     64  56  76 CALM      29.94R
KNOX*            N/A     61  55  82 N5        29.92R
SOUTH BEND     CLEAR     64  55  72 N5        29.93S
GOSHEN         CLEAR     66  58  75 N3        29.92R
MONTICELLO*    CLEAR     67  64  92 CALM      29.91R
LOGANSPORT*    CLEAR     64  59  82 CALM      29.92R HAZE
ROCHESTER*     CLEAR     68  61  77 CALM      29.92R
WARSAW*          N/A     63  59  88 CALM      29.92R
ANGOLA*          N/A     64  59  82 CALM      29.92S
FORT WAYNE     PTCLDY    67  60  78 CALM      29.91R
HUNTINGTON*    FAIR      65  60  83 CALM      29.91R
PERU/GRISSOM   CLEAR     67  62  83 NE3       29.91R
MARION*        PTCLDY    67  61  80 NE5       29.92R

$$
INZ028>050-040300-
CENTRAL INDIANA

CITY           SKY/WX    TMP DP  RH WIND       PRES   REMARKS
LAFAYETTE      CLEAR     66  63  90 CALM      29.91R
KOKOMO*        CLEAR     66  61  82 NE5       29.91R
MUNCIE*        CLOUDY    71  62  73 NE5       29.91R
INDIANAPOLIS   CLOUDY    70  61  73 NE9       29.88S

$$
MIZ043>046-050>051-056>058-064>065-071>073-077>080-040300-
SOUTHWEST LOWER MICHIGAN

CITY           SKY/WX    TMP DP  RH WIND       PRES   REMARKS
BATTLE CREEK   CLEAR     66  58  75 CALM      29.93S
BENTON HARBOR  CLEAR     61  56  83 CALM      29.93S
COLDWATER*     CLEAR     63  55  75 CALM      29.93R
HILLSDALE*     CLEAR     63  60  90 CALM      29.93S
HOLLAND        CLEAR     63  52  67 CALM      29.93S
GRAND RAPIDS   MOCLDY    67  53  61 W6        29.93R
KALAMAZOO      CLEAR     64  55  72 N6        29.93R
STURGIS*       CLEAR     63  61  94 CALM      29.92S FOG
THREE RIVERS*  FAIR      65  57  77 CALM      29.92S

$$
OHZ001>008-015>018-024>025-040300-
NORTHWEST OHIO

CITY           SKY/WX    TMP DP  RH WIND       PRES   REMARKS
DEFIANCE       CLEAR     65  56  72 CALM      29.92R
FINDLAY        CLEAR     66  54  65 NE3       29.91R
TOLEDO EXPRESS CLEAR     60  54  80 NE5       29.92R
TOLEDO METCALF CLEAR     64  52  64 CALM      29.93R
LIMA           PTCLDY    64  57  78 NE5       29.92R

$$
AND FOR LAKE MICHIGAN COASTAL AND OPEN LAKE BUOY OBSERVATIONS

STATION/POSITION TEMP    WIND        PRES    VSBY  WAVE
                 AIR SEA DIR/SP/G                  HT/PER
                 (F)     (DEG/KT/KT) (MB)    (MI)  (FT/S)
CALUMET HARBOR    64      40/  3/  4   N/A
MICHIGAN CITY     63      50/  5/  5   N/A
BURNS HARBOR      65      80/  8/ 10 1013.9F
SAINT JOSEPH      63      70/  1/  2   N/A
4 MI NW BRIDGMAN  62 62                N/A           1
MICHIGAN CITY     63 64  130/  4/  4   N/A           1

$$
&&



USA.gov is the U.S. government's official web portal to all federal, state and local government web resources and services.